FW93366 Weather Reports


time (UTC)temp
C
wind
direction
speed
KPH
gust
KPH
rain 1hr
cm
rain 24hr
cm
rain mn
cm
humidity
%
barometer
mb
20260509011541 24 305 8.0 24.1 0.00 0.00 0.00 23 1017.8
20260509010047 24 268 9.7 25.7 0.00 0.00 0.00 21 1017.9
20260509004541 25 267 8.0 27.4 0.00 0.00 0.00 20 1017.9
20260509003041 25 276 8.0 24.1 0.00 0.00 0.00 20 1017.9
20260509001545 25 278 9.7 22.5 0.00 0.00 0.00 19 1018.0
20260509000044 25 296 12.9 25.7 0.00 0.00 0.00 19 1017.9
20260508234545 25 295 12.9 27.4 0.00 0.00 0.00 19 1018.0
20260508233040 25 254 11.3 25.7 0.00 0.00 0.00 19 1018.0
20260508231621 25 13 9.7 24.1 0.00 0.00 0.00 19 1018.2
20260508230056 25 319 11.3 32.2 0.00 0.00 0.00 20 1018.5
20260508224544 25 229 12.9 29.0 0.00 0.00 0.00 19 1018.5
20260508223044 25 265 6.4 27.4 0.00 0.00 0.00 21 1018.6
20260508221543 25 248 9.7 27.4 0.00 0.00 0.00 22 1018.6
20260508220046 25 248 14.5 32.2 0.00 0.00 0.00 19 1018.7
20260508214617 25 304 9.7 22.5 0.00 0.00 0.00 18 1018.7
20260508213049 25 355 4.8 14.5 0.00 0.00 0.00 16 1018.9
20260508211543 25 240 8.0 19.3 0.00 0.00 0.00 17 1018.9
20260508210053 25 5 9.7 16.1 0.00 0.00 0.00 18 1019.0
20260508204548 26 77 3.2 11.3 0.00 0.00 0.00 17 1019.2
20260508203051 25 0 1.6 11.3 0.00 0.00 0.00 19 1019.4
20260508201549 24 80 3.2 11.3 0.00 0.00 0.00 17 1019.5
20260508200041 25 17 3.2 12.9 0.00 0.00 0.00 16 1019.6
20260508194540 23 109 4.8 11.3 0.00 0.00 0.00 17 1019.7
20260508193048 23 30 3.2 11.3 0.00 0.00 0.00 17 1020.0
20260508191541 23 33 1.6 12.9 0.00 0.00 0.00 17 1020.3
20260508190045 22 117 3.2 12.9 0.00 0.00 0.00 17 1020.3
20260508184544 22 53 0.0 6.4 0.00 0.00 0.00 19 1020.5
20260508183044 22 321 1.6 8.0 0.00 0.00 0.00 22 1020.7
20260508181543 21 0 1.6 8.0 0.00 0.00 0.00 24 1020.8
20260508180046 21 82 0.0 4.8 0.00 0.00 0.00 20 1020.9
20260508174550 20 314 1.6 4.8 0.00 0.00 0.00 23 1021.0
20260508173042 19 94 1.6 8.0 0.00 0.00 0.00 30 1021.0
20260508171539 18 0 0.0 0.0 0.00 0.00 0.00 40 1021.2
20260508170042 16 120 1.6 8.0 0.00 0.00 0.00 44 1021.2
20260508164546 16 221 1.6 6.4 0.00 0.00 0.00 45 1021.3
20260508163046 15 0 0.0 6.4 0.00 0.00 0.00 46 1021.5
20260508161545 15 260 1.6 6.4 0.00 0.00 0.00 45 1021.6
20260508160039 14 0 0.0 0.0 0.00 0.00 0.00 45 1021.6
20260508154540 12 0 0.0 0.0 0.00 0.00 0.00 50 1021.8
20260508153046 11 0 0.0 4.8 0.00 0.00 0.00 56 1021.9
20260508151545 10 236 0.0 6.4 0.00 0.00 0.00 63 1021.8
20260508150043 8 178 1.6 6.4 0.00 0.00 0.00 59 1021.9
20260508144541 7 0 0.0 4.8 0.00 0.00 0.00 69 1021.8
20260508143053 6 0 0.0 0.0 0.00 0.00 0.00 75 1021.9
20260508141540 6 0 0.0 0.0 0.00 0.00 0.00 76 1021.6
20260508140047 5 0 0.0 0.0 0.00 0.00 0.00 77 1021.6
20260508134546 4 0 0.0 0.0 0.00 0.00 0.00 76 1021.5
20260508133042 3 0 0.0 0.0 0.00 0.00 0.00 77 1021.4
20260508131543 3 0 0.0 0.0 0.00 0.00 0.00 77 1021.1
20260508130046 3 0 0.0 0.0 0.00 0.00 0.00 78 1021.1
20260508124539 3 0 0.0 0.0 0.00 0.00 0.00 77 1021.1
20260508123044 4 0 0.0 0.0 0.00 0.00 0.00 77 1020.9
20260508121543 4 0 0.0 0.0 0.00 0.00 0.00 80 1020.7
20260508120043 4 0 0.0 0.0 0.00 0.00 0.00 79 1020.8
20260508114553 4 0 0.0 0.0 0.00 0.00 0.00 80 1020.8
20260508113046 5 0 0.0 0.0 0.00 0.00 0.00 81 1020.8
20260508111558 4 0 0.0 1.6 0.00 0.00 0.00 80 1020.6
20260508110047 5 0 0.0 0.0 0.00 0.00 0.00 78 1020.8
20260508104541 5 0 0.0 0.0 0.00 0.00 0.00 80 1020.6
20260508103041 6 0 0.0 0.0 0.00 0.00 0.00 78 1020.7
20260508101546 6 0 0.0 0.0 0.00 0.00 0.00 75 1020.5
20260508100044 7 0 0.0 0.0 0.00 0.00 0.00 74 1020.4
20260508094542 7 0 0.0 0.0 0.00 0.00 0.00 74 1020.5
20260508093039 7 0 0.0 0.0 0.00 0.00 0.00 74 1020.6
20260508091602 8 0 0.0 0.0 0.00 0.00 0.00 74 1020.5
20260508090047 8 0 0.0 0.0 0.00 0.00 0.00 71 1020.5
20260508084545 8 0 0.0 0.0 0.00 0.00 0.00 70 1020.5
20260508083050 9 0 0.0 0.0 0.00 0.00 0.00 69 1020.7
20260508081549 9 0 0.0 4.8 0.00 0.00 0.00 68 1021.0
20260508080044 8 123 1.6 4.8 0.00 0.00 0.00 71 1020.9
20260508074541 10 232 0.0 4.8 0.00 0.00 0.00 68 1021.0
20260508073040 11 61 0.0 6.4 0.00 0.00 0.00 64 1020.8
20260508071541 11 0 0.0 0.0 0.00 0.00 0.00 65 1020.9
20260508070050 11 0 0.0 0.0 0.00 0.00 0.00 63 1021.0
20260508064539 11 0 0.0 0.0 0.00 0.00 0.00 63 1021.0
20260508063046 10 0 0.0 0.0 0.00 0.00 0.00 66 1021.0
20260508061543 11 0 0.0 0.0 0.00 0.00 0.00 65 1021.0
20260508060044 10 225 0.0 4.8 0.00 0.00 0.00 68 1021.0
20260508054548 11 150 0.0 12.9 0.00 0.00 0.00 66 1020.9
20260508053039 11 157 4.8 8.0 0.00 0.00 0.00 64 1020.7
20260508051544 12 170 6.4 14.5 0.00 0.00 0.00 58 1020.7
20260508050052 14 188 0.0 4.8 0.00 0.00 0.00 51 1020.7
20260508044546 15 159 3.2 9.7 0.00 0.00 0.00 47 1020.9
20260508043048 17 257 4.8 14.5 0.00 0.00 0.00 43 1020.7
20260508041541 17 295 6.4 14.5 0.00 0.00 0.00 45 1020.5
20260508040044 17 19 1.6 20.9 0.00 0.00 0.00 42 1020.2
20260508034550 17 294 4.8 22.5 0.00 0.00 0.00 40 1019.9
20260508033040 18 315 4.8 19.3 0.00 0.00 0.00 39 1019.7
20260508031545 18 330 1.6 12.9 0.00 0.00 0.00 37 1019.6
20260508030043 19 330 4.8 14.5 0.00 0.00 0.00 34 1019.4
20260508024555 20 318 3.2 16.1 0.00 0.00 0.00 27 1019.2
20260508023046 21 262 11.3 19.3 0.00 0.00 0.00 25 1019.0
20260508021545 21 244 6.4 17.7 0.00 0.00 0.00 26 1018.9
20260508020041 22 211 6.4 19.3 0.00 0.00 0.00 27 1018.9
20260508014547 22 207 6.4 14.5 0.00 0.00 0.00 28 1018.7
20260508013045 23 207 9.7 17.7 0.00 0.00 0.00 26 1018.6